IK3JLT-13 Weather Reports


Display with metric or nautical units.
time (UTC)temp
F
wind
direction
speed
MPH
gust
MPH
rain 1hr
in
rain 24hr
in
rain mn
in
humidity
%
barometer
mb
20260504100117 75 135 6.0 8.0 0.00 0.00 0.00 31 1015.7
20260504090113 73 90 5.0 7.0 0.00 0.00 0.00 32 1016.1
20260504081111 71 90 4.0 6.0 0.00 0.00 0.00 44 1016.1
20260504080111 71 135 4.0 5.0 0.00 0.00 0.00 44 1016.3
20260504070107 67 135 4.0 5.0 0.00 0.00 0.00 46 1016.0
20260504060109 61 180 2.0 2.0 0.00 0.00 0.00 63 1015.7
20260504050106 58 135 2.0 3.0 0.00 0.00 0.00 67 1015.3
20260504045108 57 315 2.0 2.0 0.00 0.00 0.00 69 1015.2
20260504044106 56 315 1.0 2.0 0.00 0.00 0.00 70 1015.2
20260504043105 55 0 2.0 3.0 0.00 0.00 0.00 71 1015.1
20260504042106 54 0 2.0 2.0 0.00 0.00 0.00 74 1015.0
20260504041106 54 315 2.0 3.0 0.00 0.00 0.00 74 1014.9
20260504040106 54 315 2.0 2.0 0.00 0.00 0.00 73 1015.0
20260504035106 54 315 0.0 0.0 0.00 0.00 0.00 72 1015.1
20260504034106 54 315 2.0 2.0 0.00 0.00 0.00 72 1015.0
20260504033107 55 0 2.0 2.0 0.00 0.00 0.00 70 1015.1
20260504032106 55 0 2.0 4.0 0.00 0.00 0.00 70 1015.0
20260504031107 55 0 3.0 4.0 0.00 0.00 0.00 70 1015.2
20260504030105 55 0 2.0 3.0 0.00 0.00 0.00 70 1015.1
20260504025103 55 0 2.0 3.0 0.00 0.00 0.00 70 1015.2
20260504024103 55 0 3.0 4.0 0.00 0.00 0.00 69 1015.1
20260504023103 55 45 2.0 3.0 0.00 0.00 0.00 69 1015.2
20260504022102 55 45 2.0 2.0 0.00 0.00 0.00 68 1015.1
20260504021102 56 0 1.0 2.0 0.00 0.00 0.00 67 1015.2
20260504020104 56 0 2.0 2.0 0.00 0.00 0.00 67 1015.1
20260504015105 56 90 1.0 2.0 0.00 0.00 0.00 66 1015.2
20260504014105 56 45 2.0 3.0 0.00 0.00 0.00 67 1015.2
20260504013105 56 0 4.0 4.0 0.00 0.00 0.00 67 1015.3
20260504012105 57 0 3.0 4.0 0.00 0.00 0.00 66 1015.4
20260504011106 57 0 3.0 4.0 0.00 0.00 0.00 64 1015.3
20260504010105 58 22 3.0 4.0 0.00 0.00 0.00 63 1015.4
20260504005105 58 90 1.0 2.0 0.00 0.00 0.00 62 1015.4
20260504004105 58 90 1.0 2.0 0.00 0.00 0.00 63 1015.4
20260504003105 58 135 0.0 0.0 0.00 0.00 0.00 63 1015.5
20260504002106 58 90 1.0 2.0 0.00 0.00 0.00 63 1015.5
20260504001105 58 90 2.0 2.0 0.00 0.00 0.00 63 1015.5
20260504000105 58 90 2.0 2.0 0.00 0.00 0.00 63 1015.3
20260503235105 58 45 2.0 3.0 0.00 0.00 0.00 63 1015.5
20260503234105 58 90 2.0 3.0 0.00 0.00 0.00 63 1015.5
20260503233106 58 90 2.0 2.0 0.00 0.00 0.00 62 1015.5
20260503232105 58 90 4.0 4.0 0.00 0.00 0.00 62 1015.4
20260503231105 58 22 2.0 4.0 0.00 0.00 0.00 62 1015.6
20260503230105 59 45 2.0 2.0 0.00 0.00 0.00 62 1015.5
20260503225104 59 45 2.0 2.0 0.00 0.00 0.00 62 1015.5
20260503224105 59 0 2.0 3.0 0.00 0.00 0.00 62 1015.6
20260503223106 59 338 2.0 3.0 0.00 0.00 0.00 62 1015.5
20260503222105 60 315 2.0 2.0 0.00 0.00 0.00 62 1015.6
20260503221105 60 0 2.0 2.0 0.00 0.00 0.00 62 1015.5
20260503220104 60 315 2.0 3.0 0.00 0.00 0.00 61 1015.5
20260503215104 60 315 3.0 4.0 0.00 0.00 0.00 61 1015.6
20260503214105 60 315 2.0 2.0 0.00 0.00 0.00 61 1015.6
20260503213104 60 315 1.0 2.0 0.00 0.00 0.00 60 1015.5
20260503212105 61 315 0.0 0.0 0.00 0.00 0.00 58 1015.4
20260503211106 61 315 1.0 2.0 0.00 0.00 0.00 57 1015.4
20260503210105 62 315 1.0 1.0 0.00 0.00 0.00 56 1015.3
20260503205105 63 270 2.0 3.0 0.00 0.00 0.00 55 1015.4
20260503204105 63 315 3.0 4.0 0.00 0.00 0.00 54 1015.3
20260503203105 64 338 2.0 3.0 0.00 0.00 0.00 49 1015.3
20260503202104 64 0 2.0 2.0 0.00 0.00 0.00 47 1015.3
20260503201105 64 315 3.0 4.0 0.00 0.00 0.00 46 1015.4
20260503200105 65 0 3.0 4.0 0.00 0.00 0.00 46 1015.3
20260503195105 65 315 2.0 2.0 0.00 0.00 0.00 45 1015.4
20260503194105 65 270 1.0 2.0 0.00 0.00 0.00 45 1015.5
20260503193105 65 315 2.0 2.0 0.00 0.00 0.00 44 1015.3
20260503192106 65 180 2.0 2.0 0.00 0.00 0.00 44 1015.2
20260503191106 66 135 2.0 4.0 0.00 0.00 0.00 43 1015.1
20260503190107 67 135 3.0 4.0 0.00 0.00 0.00 42 1015.1